When you browse on this site, cookies collect data to enhance your experience and personalize the content and advertising you see.
Visit our Privacy Policy to learn more. By continuing to use the site, you agree to this use of cookies and data.
  • In Hungary
  • List of Countries
  • For 7 days
  • Water Temperature
  • Satellite Maps
  • Weather Map
  • News
  • Weather Widgets
  • user-avatar
    Login

    Hourly Weather Makurdi

    Today, 16 January, Wednesday

    Time Temperature Precipitation Wind Pressure Humidity
    00:00 +31°C° 0 mm 1 mps 748 mmHg 17%
    01:00 +31°C° 0 mm 1 mps 748 mmHg 17%
    02:00 +30°C° 0 mm 1 mps 748 mmHg 17%
    03:00 +29°C° 0 mm 1 mps 748 mmHg 18%
    04:00 +28°C° 0 mm 2 mps 748 mmHg 19%
    05:00 +28°C° 0 mm 2 mps 748 mmHg 23%
    06:00 +27°C° 0 mm 1 mps 749 mmHg 27%
    07:00 +26°C° 0 mm 1 mps 749 mmHg 32%
    08:00 +29°C° 0 mm 2 mps 749 mmHg 25%
    09:00 +31°C° 0 mm 2 mps 750 mmHg 18%
    10:00 +34°C° 0 mm 3 mps 750 mmHg 11%
    11:00 +36°C° 0 mm 3 mps 749 mmHg 10%
    12:00 +37°C° 0 mm 3 mps 749 mmHg 8%
    13:00 +39°C° 0 mm 3 mps 748 mmHg 7%
    14:00 +39°C° 0 mm 2 mps 747 mmHg 7%
    15:00 +40°C° 0 mm 2 mps 746 mmHg 8%
    16:00 +41°C° 0 mm 2 mps 746 mmHg 8%
    17:00 +39°C° 0 mm 2 mps 746 mmHg 8%
    18:00 +37°C° 0 mm 1 mps 746 mmHg 9%
    19:00 +35°C° 0 mm 1 mps 746 mmHg 10%
    20:00 +34°C° 0 mm 1 mps 747 mmHg 11%
    21:00 +33°C° 0 mm 1 mps 747 mmHg 11%
    22:00 +30°C° 0 mm 0 mps 748 mmHg 12%
    23:00 +32°C° 0 mm 1 mps 748 mmHg 12%

    Tomorrow, 17 January, Thursday

    Time Temperature Precipitation Wind Pressure Humidity
    00:00 +31°C° 0 mm 1 mps 748 mmHg 13%
    01:00 +30°C° 0 mm 1 mps 748 mmHg 14%
    02:00 +30°C° 0 mm 1 mps 748 mmHg 15%
    03:00 +29°C° 0 mm 1 mps 748 mmHg 17%
    04:00 +28°C° 0 mm 2 mps 748 mmHg 19%
    05:00 +27°C° 0 mm 2 mps 748 mmHg 34%
    06:00 +27°C° 0 mm 1 mps 748 mmHg 48%
    07:00 +26°C° 0 mm 1 mps 749 mmHg 63%
    08:00 +28°C° 0 mm 1 mps 749 mmHg 49%
    09:00 +31°C° 0 mm 2 mps 750 mmHg 35%
    10:00 +34°C° 0 mm 2 mps 750 mmHg 20%
    11:00 +36°C° 0 mm 3 mps 750 mmHg 16%
    12:00 +38°C° 0 mm 3 mps 749 mmHg 11%
    13:00 +39°C° 0 mm 3 mps 748 mmHg 6%
    14:00 +40°C° 0 mm 2 mps 747 mmHg 6%
    15:00 +41°C° 0 mm 2 mps 746 mmHg 6%
    16:00 +41°C° 0 mm 2 mps 745 mmHg 6%
    17:00 +39°C° 0 mm 1 mps 746 mmHg 6%
    18:00 +37°C° 0 mm 1 mps 746 mmHg 7%
    19:00 +33°C° 0 mm 0 mps 746 mmHg 8%
    20:00 +34°C° 0 mm 1 mps 747 mmHg 8%
    21:00 +33°C° 0 mm 1 mps 748 mmHg 8%
    22:00 +33°C° 0 mm 1 mps 748 mmHg 9%
    23:00 +32°C° 0 mm 1 mps 748 mmHg 9%

    Day after tomorrow, 18 January, Friday

    Time Temperature Precipitation Wind Pressure Humidity
    00:00 +31°C° 0 mm 1 mps 748 mmHg 8%
    01:00 +30°C° 0 mm 1 mps 748 mmHg 8%
    02:00 +29°C° 0 mm 1 mps 748 mmHg 12%
    03:00 +28°C° 0 mm 2 mps 748 mmHg 17%
    04:00 +27°C° 0 mm 2 mps 747 mmHg 21%
    05:00 +27°C° 0 mm 1 mps 748 mmHg 39%
    06:00 +26°C° 0 mm 1 mps 748 mmHg 58%
    07:00 +25°C° 0 mm 1 mps 749 mmHg 76%
    08:00 +28°C° 0 mm 1 mps 749 mmHg 64%
    09:00 +31°C° 0 mm 1 mps 750 mmHg 51%
    10:00 +33°C° 0 mm 1 mps 751 mmHg 39%
    11:00 +36°C° 0 mm 2 mps 750 mmHg 30%
    12:00 +38°C° 0 mm 2 mps 749 mmHg 21%
    13:00 +39°C° 0 mm 2 mps 748 mmHg 13%
    14:00 +40°C° 0 mm 2 mps 747 mmHg 10%
    15:00 +40°C° 0 mm 2 mps 746 mmHg 8%
    16:00 +41°C° 0 mm 2 mps 745 mmHg 6%
    17:00 +39°C° 0 mm 1 mps 746 mmHg 6%
    18:00 +36°C° 0 mm 1 mps 746 mmHg 6%
    19:00 +35°C° 0 mm 1 mps 746 mmHg 6%
    20:00 +32°C° 0 mm 0 mps 747 mmHg 6%
    21:00 +31°C° 0 mm 0 mps 747 mmHg 6%
    22:00 +30°C° 0 mm 0 mps 748 mmHg 7%
    23:00 +30°C° 0 mm 0 mps 748 mmHg 7%

    19 January, Saturday

    Time Temperature Precipitation Wind Pressure Humidity
    00:00 +29°C° 0 mm 0 mps 748 mmHg 7%
    01:00 +30°C° 0 mm 1 mps 748 mmHg 7%
    02:00 +30°C° 0 mm 1 mps 748 mmHg 23%
    03:00 +29°C° 0 mm 2 mps 748 mmHg 38%
    04:00 +28°C° 0 mm 2 mps 748 mmHg 54%
    05:00 +27°C° 0 mm 2 mps 748 mmHg 62%
    06:00 +27°C° 0 mm 1 mps 749 mmHg 70%
    07:00 +27°C° 0 mm 1 mps 749 mmHg 78%
    08:00 +29°C° 0 mm 1 mps 750 mmHg 69%
    09:00 +31°C° 0 mm 1 mps 750 mmHg 59%
    10:00 +33°C° 0 mm 1 mps 751 mmHg 50%
    11:00 +35°C° 0 mm 1 mps 750 mmHg 40%
    12:00 +39°C° 0 mm 1 mps 749 mmHg 31%
    13:00 +41°C° 0 mm 1 mps 748 mmHg 21%
    14:00 +41°C° 0 mm 1 mps 747 mmHg 19%
    15:00 +41°C° 0 mm 1 mps 746 mmHg 18%
    16:00 +41°C° 0 mm 1 mps 745 mmHg 16%
    17:00 +40°C° 0 mm 1 mps 746 mmHg 16%
    18:00 +39°C° 0 mm 1 mps 746 mmHg 16%
    19:00 +36°C° 0 mm 1 mps 746 mmHg 16%
    20:00 +36°C° 0 mm 1 mps 747 mmHg 16%
    21:00 +35°C° 0 mm 1 mps 748 mmHg 15%
    22:00 +32°C° 0 mm 0 mps 749 mmHg 15%
    23:00 +33°C° 0 mm 1 mps 748 mmHg 15%

    20 January, Sunday

    Time Temperature Precipitation Wind Pressure Humidity
    00:00 +33°C° 0 mm 1 mps 748 mmHg 16%
    01:00 +32°C° 0 mm 2 mps 748 mmHg 17%
    02:00 +31°C° 0 mm 2 mps 748 mmHg 33%
    03:00 +30°C° 0 mm 3 mps 748 mmHg 50%
    04:00 +29°C° 0 mm 3 mps 748 mmHg 67%
    05:00 +29°C° 0 mm 2 mps 748 mmHg 69%
    06:00 +29°C° 0 mm 2 mps 749 mmHg 72%
    07:00 +28°C° 0 mm 1 mps 750 mmHg 74%
    08:00 +30°C° 0 mm 1 mps 750 mmHg 67%
    09:00 +31°C° 0 mm 1 mps 750 mmHg 61%
    10:00 +34°C° 0 mm 2 mps 751 mmHg 54%
    11:00 +36°C° 0 mm 2 mps 750 mmHg 45%
    12:00 +37°C° 0 mm 1 mps 749 mmHg 36%
    13:00 +40°C° 0 mm 1 mps 748 mmHg 27%
    14:00 +41°C° 0 mm 1 mps 748 mmHg 25%
    15:00 +41°C° 0 mm 1 mps 747 mmHg 23%
    16:00 +41°C° 0 mm 1 mps 746 mmHg 21%
    17:00 +40°C° 0 mm 1 mps 746 mmHg 22%
    18:00 +39°C° 0 mm 1 mps 747 mmHg 23%
    19:00 +37°C° 0 mm 1 mps 747 mmHg 24%
    20:00 +36°C° 0 mm 1 mps 747 mmHg 25%
    21:00 +35°C° 0 mm 1 mps 748 mmHg 27%
    22:00 +35°C° 0 mm 1 mps 748 mmHg 28%
    23:00 +34°C° 0 mm 1 mps 748 mmHg 29%

    21 January, Monday

    Time Temperature Precipitation Wind Pressure Humidity
    00:00 +33°C° 0 mm 1 mps 748 mmHg 30%
    01:00 +33°C° 0 mm 1 mps 748 mmHg 30%
    02:00 +32°C° 0 mm 2 mps 748 mmHg 38%
    03:00 +31°C° 0 mm 2 mps 748 mmHg 45%
    04:00 +30°C° 0 mm 3 mps 748 mmHg 53%
    05:00 +30°C° 0 mm 3 mps 748 mmHg 59%
    06:00 +29°C° 0 mm 2 mps 749 mmHg 64%
    07:00 +29°C° 0 mm 2 mps 749 mmHg 70%
    08:00 +30°C° 0 mm 2 mps 750 mmHg 65%
    09:00 +32°C° 0 mm 2 mps 750 mmHg 59%
    10:00 +34°C° 0 mm 2 mps 750 mmHg 53%
    11:00 +36°C° 0 mm 2 mps 750 mmHg 46%
    12:00 +38°C° 0 mm 2 mps 749 mmHg 38%
    13:00 +41°C° 0 mm 1 mps 748 mmHg 30%
    14:00 +41°C° 0 mm 1 mps 747 mmHg 27%
    15:00 +42°C° 0 mm 1 mps 746 mmHg 24%
    16:00 +43°C° 0 mm 1 mps 745 mmHg 20%
    17:00 +41°C° 0 mm 1 mps 745 mmHg 22%
    18:00 +40°C° 0 mm 1 mps 746 mmHg 23%
    19:00 +39°C° 0 mm 1 mps 746 mmHg 24%
    20:00 +35°C° 0 mm 0 mps 746 mmHg 25%
    21:00 +34°C° 0 mm 0 mps 747 mmHg 26%
    22:00 +34°C° 0 mm 0 mps 747 mmHg 27%
    23:00 +35°C° 0 mm 1 mps 747 mmHg 31%
    Show more